Sevilla, Spain

10:34 AM CEST on June 25, 2017 (GMT +0200)
San Pablo

Weather History for LEZL - October, 2012

Change the Weather History Date:

Saturday, October 20, 2012

  Actual Average Record
Temperature  
Mean Temperature 61 °F -  
Max Temperature 71 °F 69 °F 87 °F (2014)
Min Temperature 51 °F 51 °F 44 °F (1998)
Degree Days  
Heating Degree Days 4    
Growing Degree Days 11 (Base 50)    
Moisture  
Dew Point 52 °F    
Average Humidity 75    
Maximum Humidity 100    
Minimum Humidity 43    
Precipitation  
Precipitation 0.00 in - - ()
Sea Level Pressure  
Sea Level Pressure 29.87 in    
Wind  
Wind Speed 2 mph ()    
Max Wind Speed 13 mph    
Max Gust Speed -    
Visibility 6.2 miles    
Events      
Averages and records for this station are not official NWS values.
T = Trace of Precipitation, MM = Missing Value Source: Averaged Metar Reports

Daily Weather History Graph

Daily Weather History Graph

Search for Another Location

Airport or City:

Trip Planner

Search our weather history database for the weather conditions in past years. The results will help you decide how hot, cold, wet, or windy it might be!

Date:

Astronomy

Oct. 20, 2012 Rise Set
Actual Time 8:36 AM CEST 7:39 PM CEST
Civil Twilight 8:10 AM CEST 8:05 PM CEST
Nautical Twilight 7:39 AM CEST 8:36 PM CEST
Astronomical Twilight 7:09 AM CEST 9:06 PM CEST
Moon 1:57 PM CEST (10/20) No Moon Set
Length of Visible Light 11h 55m
Length of Day
11h 02m
Waxing Crescent, 31% of the Moon is Illuminated
Oct 20
Waxing Crescent
Oct 22
First Quarter
Oct 29
Full
Nov 7
Last Quarter
Nov 13
New

Hourly Weather History & Observations

Time (CEST) Temp. Dew Point Humidity Pressure Visibility Wind Dir Wind Speed Gust Speed Precip Events Conditions
12:00 AM 57.2 °F 53.6 °F 88% 29.89 in 6.2 mi Calm Calm - N/A   Partly Cloudy
12:30 AM 57.2 °F 53.6 °F 88% 29.89 in - East 1.2 mph - N/A   Clear
1:00 AM 57.2 °F 53.6 °F 88% 29.86 in - Calm Calm - N/A   Clear
4:30 AM 51.8 °F 51.8 °F 100% 29.86 in - Variable 1.2 mph - N/A   Clear
5:00 AM 53.6 °F 51.8 °F 94% 29.83 in - Calm Calm - N/A   Clear
5:30 AM 53.6 °F 51.8 °F 94% 29.86 in 6.2 mi Variable 2.3 mph - N/A   Partly Cloudy
6:00 AM 53.6 °F 51.8 °F 94% 29.86 in 6.2 mi Variable 2.3 mph - N/A   Partly Cloudy
6:30 AM 53.6 °F 51.8 °F 94% 29.86 in 6.2 mi Variable 2.3 mph - N/A   Partly Cloudy
7:00 AM 53.6 °F 51.8 °F 94% 29.86 in 6.2 mi NE 1.2 mph - N/A   Partly Cloudy
7:30 AM 53.6 °F 51.8 °F 94% 29.86 in - Calm Calm - N/A   Clear
8:00 AM 51.8 °F 51.8 °F 100% 29.86 in - Variable 2.3 mph - N/A   Clear
8:30 AM 51.8 °F 50.0 °F 94% 29.89 in - NW 2.3 mph - N/A   Clear
9:00 AM 51.8 °F 50.0 °F 94% 29.86 in - North 1.2 mph - N/A   Clear
9:30 AM 51.8 °F 51.8 °F 100% 29.89 in - Calm Calm - N/A   Clear
10:00 AM 53.6 °F 51.8 °F 94% 29.89 in - Calm Calm - N/A   Clear
10:30 AM 55.4 °F 53.6 °F 94% 29.89 in 6.2 mi Variable 1.2 mph - N/A   Partly Cloudy
11:00 AM 59.0 °F 55.4 °F 88% 29.89 in 6.2 mi Variable 2.3 mph - N/A   Partly Cloudy
11:30 AM 59.0 °F 55.4 °F 88% 29.89 in 6.2 mi Variable 1.2 mph - N/A   Partly Cloudy
12:00 PM 62.6 °F 55.4 °F 77% 29.89 in 6.2 mi Variable 1.2 mph - N/A   Partly Cloudy
12:30 PM 64.4 °F 55.4 °F 73% 29.89 in 6.2 mi Calm Calm - N/A   Partly Cloudy
1:00 PM 64.4 °F 51.8 °F 64% 29.89 in 6.2 mi Variable 1.2 mph - N/A   Partly Cloudy
1:30 PM 64.4 °F 51.8 °F 64% 29.89 in 6.2 mi Variable 2.3 mph - N/A   Partly Cloudy
2:00 PM 66.2 °F 53.6 °F 64% 29.89 in 6.2 mi West 3.5 mph - N/A   Partly Cloudy
2:30 PM 68.0 °F 51.8 °F 56% 29.86 in 6.2 mi WSW 4.6 mph - N/A   Partly Cloudy
3:00 PM 68.0 °F 51.8 °F 56% 29.86 in 6.2 mi West 1.2 mph - N/A   Partly Cloudy
3:30 PM 68.0 °F 50.0 °F 52% 29.86 in 6.2 mi SW 3.5 mph - N/A   Partly Cloudy
4:00 PM 68.0 °F 48.2 °F 49% 29.83 in 6.2 mi WSW 4.6 mph - N/A   Partly Cloudy
4:30 PM 68.0 °F 50.0 °F 52% 29.83 in 6.2 mi WSW 4.6 mph - N/A   Partly Cloudy
5:00 PM 71.6 °F 50.0 °F 46% 29.86 in 6.2 mi Variable 1.2 mph - N/A   Partly Cloudy
5:30 PM 69.8 °F 46.4 °F 43% 29.86 in 6.2 mi WSW 4.6 mph - N/A   Partly Cloudy
6:00 PM 68.0 °F 50.0 °F 52% 29.86 in 6.2 mi WSW 8.1 mph - N/A   Partly Cloudy
6:30 PM 68.0 °F 51.8 °F 56% 29.86 in 6.2 mi SW 12.7 mph - N/A   Partly Cloudy
7:00 PM 66.2 °F 51.8 °F 60% 29.86 in 6.2 mi SW 12.7 mph - N/A   Partly Cloudy
7:30 PM 66.2 °F 50.0 °F 56% 29.86 in - SW 12.7 mph - N/A   Clear
8:00 PM 64.4 °F 51.8 °F 64% 29.89 in - SW 10.4 mph - N/A   Clear
8:30 PM 62.6 °F 51.8 °F 68% 29.89 in - SW 12.7 mph - N/A   Clear
9:00 PM 62.6 °F 51.8 °F 68% 29.89 in - WSW 6.9 mph - N/A   Clear
9:30 PM 62.6 °F 51.8 °F 68% 29.89 in - WSW 8.1 mph - N/A   Clear
10:30 PM 60.8 °F 51.8 °F 72% 29.92 in - SW 5.8 mph - N/A   Clear
11:00 PM 59.0 °F 51.8 °F 77% 29.92 in - SW 6.9 mph - N/A   Clear
11:30 PM 59.0 °F 51.8 °F 77% 29.92 in - SW 6.9 mph - N/A   Clear